Time,TemperatureF,DewpointF,PressureIn,WindDirection,WindDirectionDegrees,WindSpeedMPH,WindSpeedGustMPH,Humidity,HourlyPrecipIn,Conditions,Clouds,dailyrainin,SoftwareType,DateUTC
2013-06-16 00:01:00,82.9,78.3,29.08,South,180,3.5,8.1,86,0.00,,FEW,0.00,WeatherDisplay:10.37,2013-06-16 05:01:00,
2013-06-16 00:06:00,82.9,78.3,29.08,SSE,148,6.1,8.1,86,0.00,,FEW,0.00,WeatherDisplay:10.37,2013-06-16 05:06:00,
2013-06-16 00:11:00,82.9,78.6,29.08,SSE,154,3.0,5.8,87,0.00,,FEW,0.00,WeatherDisplay:10.37,2013-06-16 05:11:00,
2013-06-16 00:16:00,82.8,78.2,29.08,SE,137,2.6,9.2,86,0.00,,FEW,0.00,WeatherDisplay:10.37,2013-06-16 05:16:00,
2013-06-16 00:21:00,82.8,78.2,29.08,South,180,6.3,10.4,86,0.00,,FEW,0.00,WeatherDisplay:10.37,2013-06-16 05:21:00,
2013-06-16 00:26:00,82.9,78.6,29.08,ESE,111,5.1,8.1,87,0.00,,FEW,0.00,WeatherDisplay:10.37,2013-06-16 05:26:00,
2013-06-16 00:31:00,83.0,78.7,29.08,SE,130,4.6,6.9,87,0.00,,FEW,0.00,WeatherDisplay:10.37,2013-06-16 05:31:00,
2013-06-16 00:36:00,82.9,78.6,29.08,SE,142,2.4,4.6,87,0.00,,FEW,0.00,WeatherDisplay:10.37,2013-06-16 05:36:00,
2013-06-16 00:41:00,82.7,78.4,29.08,SSE,152,4.9,10.4,87,0.00,,FEW,0.00,WeatherDisplay:10.37,2013-06-16 05:41:00,
2013-06-16 00:46:00,82.6,78.3,29.08,SE,138,3.9,10.4,87,0.00,,FEW,0.00,WeatherDisplay:10.37,2013-06-16 05:46:00,
2013-06-16 00:51:00,82.5,78.2,29.08,SE,128,5.5,9.2,87,0.00,,FEW,0.00,WeatherDisplay:10.37,2013-06-16 05:51:00,
2013-06-16 00:56:00,82.5,78.2,29.08,SSE,149,3.6,4.6,87,0.00,,FEW,0.00,WeatherDisplay:10.37,2013-06-16 05:56:00,
2013-06-16 01:01:00,82.5,78.6,29.08,SSE,161,5.0,6.9,88,0.00,,FEW,0.00,WeatherDisplay:10.37,2013-06-16 06:01:00,
2013-06-16 01:06:00,82.4,77.8,29.08,NE,45,14.6,14.6,86,0.00,,FEW,0.00,WeatherDisplay:10.37,2013-06-16 06:06:00,
2013-06-16 01:11:00,82.3,77.7,29.08,SE,133,5.3,9.2,86,0.00,,FEW,0.00,WeatherDisplay:10.37,2013-06-16 06:11:00,
2013-06-16 01:16:00,82.3,77.3,29.08,South,188,4.2,9.2,85,0.00,,FEW,0.00,WeatherDisplay:10.37,2013-06-16 06:16:00,
2013-06-16 01:21:00,82.3,77.3,29.08,SSE,152,9.7,9.7,85,0.00,,FEW,0.00,WeatherDisplay:10.37,2013-06-16 06:21:00,
2013-06-16 01:26:00,82.3,77.7,29.08,South,190,6.5,11.5,86,0.00,,FEW,0.00,WeatherDisplay:10.37,2013-06-16 06:26:00,
2013-06-16 01:31:00,82.4,77.8,29.08,South,190,7.1,11.5,86,0.00,,FEW,0.00,WeatherDisplay:10.37,2013-06-16 06:31:00,
2013-06-16 01:36:00,82.4,77.8,29.08,ESE,123,6.6,6.9,86,0.00,,FEW,0.00,WeatherDisplay:10.37,2013-06-16 06:36:00,
2013-06-16 01:41:00,82.3,77.7,29.07,SE,141,6.3,10.4,86,0.00,,FEW,0.00,WeatherDisplay:10.37,2013-06-16 06:41:00,
2013-06-16 01:46:00,82.3,78.0,29.08,South,185,5.2,10.4,87,0.00,,FEW,0.00,WeatherDisplay:10.37,2013-06-16 06:46:00,
2013-06-16 01:51:00,82.3,78.0,29.08,SW,220,2.7,4.6,87,0.00,,FEW,0.00,WeatherDisplay:10.37,2013-06-16 06:51:00,
2013-06-16 01:56:00,82.2,77.9,29.08,SSE,149,4.1,6.9,87,0.00,,FEW,0.00,WeatherDisplay:10.37,2013-06-16 06:56:00,
2013-06-16 02:01:00,82.2,77.9,29.07,South,179,5.4,6.9,87,0.00,,FEW,0.00,WeatherDisplay:10.37,2013-06-16 07:01:00,
2013-06-16 02:06:00,82.1,77.8,29.08,South,177,5.3,10.4,87,0.00,,FEW,0.00,WeatherDisplay:10.37,2013-06-16 07:06:00,
2013-06-16 02:11:00,82.1,77.8,29.07,SSE,168,6.2,11.5,87,0.00,,FEW,0.00,WeatherDisplay:10.37,2013-06-16 07:11:00,
2013-06-16 02:16:00,82.0,77.7,29.07,SSE,154,3.0,8.1,87,0.00,,FEW,0.00,WeatherDisplay:10.37,2013-06-16 07:16:00,
2013-06-16 02:21:00,82.0,77.7,29.07,SSE,163,4.2,8.1,87,0.00,,FEW,0.00,WeatherDisplay:10.37,2013-06-16 07:21:00,
2013-06-16 02:26:00,81.9,77.6,29.07,South,182,4.8,10.4,87,0.00,,FEW,0.00,WeatherDisplay:10.37,2013-06-16 07:26:00,
2013-06-16 02:31:00,81.9,77.6,29.07,SW,231,4.6,7.4,87,0.00,,FEW,0.00,WeatherDisplay:10.37,2013-06-16 07:31:00,
2013-06-16 02:36:00,81.9,77.6,29.07,ESE,122,5.0,10.4,87,0.00,,FEW,0.00,WeatherDisplay:10.37,2013-06-16 07:36:00,
2013-06-16 02:41:00,81.9,77.6,29.07,SSE,159,3.3,11.5,87,0.00,,FEW,0.00,WeatherDisplay:10.37,2013-06-16 07:41:00,
2013-06-16 02:46:00,81.9,77.6,29.07,South,182,4.7,8.1,87,0.00,,FEW,0.00,WeatherDisplay:10.37,2013-06-16 07:46:00,
2013-06-16 02:51:00,81.9,77.6,29.07,SW,221,5.4,6.9,87,0.00,,FEW,0.00,WeatherDisplay:10.37,2013-06-16 07:51:00,
2013-06-16 02:56:00,81.9,77.6,29.07,South,173,4.3,5.8,87,0.00,,FEW,0.00,WeatherDisplay:10.37,2013-06-16 07:56:00,
2013-06-16 03:01:00,82.0,77.7,29.06,SSW,213,4.2,9.5,87,0.00,,FEW,0.00,WeatherDisplay:10.37,2013-06-16 08:01:00,
2013-06-16 03:06:00,81.9,77.6,29.06,SE,126,3.3,8.1,87,0.00,,FEW,0.00,WeatherDisplay:10.37,2013-06-16 08:06:00,
2013-06-16 03:11:00,81.9,77.6,29.06,SSW,207,5.5,8.1,87,0.00,,FEW,0.00,WeatherDisplay:10.37,2013-06-16 08:11:00,
2013-06-16 03:16:00,81.9,77.6,29.06,South,176,7.7,12.7,87,0.00,,FEW,0.00,WeatherDisplay:10.37,2013-06-16 08:16:00,
2013-06-16 03:21:00,81.9,77.6,29.06,SSE,150,5.4,6.3,87,0.00,,FEW,0.00,WeatherDisplay:10.37,2013-06-16 08:21:00,
2013-06-16 03:26:00,81.8,77.2,29.06,SW,218,4.8,15.0,86,0.00,,FEW,0.00,WeatherDisplay:10.37,2013-06-16 08:26:00,
2013-06-16 03:31:00,81.8,77.2,29.06,SE,143,3.0,10.4,86,0.00,,FEW,0.00,WeatherDisplay:10.37,2013-06-16 08:31:00,
2013-06-16 03:36:00,81.9,77.6,29.05,SE,126,7.8,11.5,87,0.00,,FEW,0.00,WeatherDisplay:10.37,2013-06-16 08:36:00,
2013-06-16 03:41:00,81.8,77.5,29.05,SSW,211,5.1,8.1,87,0.00,,FEW,0.00,WeatherDisplay:10.37,2013-06-16 08:41:00,
2013-06-16 03:46:00,81.7,77.1,29.05,SSE,167,6.0,6.0,86,0.00,,FEW,0.00,WeatherDisplay:10.37,2013-06-16 08:46:00,
2013-06-16 03:51:00,81.8,77.5,29.05,South,184,4.7,8.1,87,0.00,,FEW,0.00,WeatherDisplay:10.37,2013-06-16 08:51:00,
2013-06-16 03:56:00,81.9,77.6,29.05,SSE,147,6.2,6.9,87,0.00,,FEW,0.00,WeatherDisplay:10.37,2013-06-16 08:56:00,
2013-06-16 04:01:00,81.9,77.3,29.05,ESE,114,6.6,10.4,86,0.00,,FEW,0.00,WeatherDisplay:10.37,2013-06-16 09:01:00,
2013-06-16 04:06:00,81.9,77.3,29.05,South,172,1.7,8.1,86,0.00,,FEW,0.00,WeatherDisplay:10.37,2013-06-16 09:06:00,
2013-06-16 04:11:00,81.9,77.3,29.05,SSW,197,6.0,12.7,86,0.00,,FEW,0.00,WeatherDisplay:10.37,2013-06-16 09:11:00,
2013-06-16 04:16:00,81.8,77.2,29.05,SE,142,6.0,8.1,86,0.00,,FEW,0.00,WeatherDisplay:10.37,2013-06-16 09:16:00,
2013-06-16 04:21:00,81.8,77.2,29.05,SSE,148,4.7,10.4,86,0.00,,FEW,0.00,WeatherDisplay:10.37,2013-06-16 09:21:00,
2013-06-16 04:26:00,81.8,77.5,29.05,ESE,116,4.0,6.9,87,0.00,,FEW,0.00,WeatherDisplay:10.37,2013-06-16 09:26:00,
2013-06-16 04:31:00,81.8,77.5,29.05,SSE,148,7.2,10.4,87,0.00,,FEW,0.00,WeatherDisplay:10.37,2013-06-16 09:31:00,
2013-06-16 04:36:00,81.7,77.5,29.05,SE,135,3.5,5.8,87,0.00,,FEW,0.00,WeatherDisplay:10.37,2013-06-16 09:36:00,
2013-06-16 04:41:00,81.7,77.5,29.05,ESE,116,3.6,5.8,87,0.00,,FEW,0.00,WeatherDisplay:10.37,2013-06-16 09:41:00,
2013-06-16 04:46:00,81.7,77.5,29.05,SSW,201,5.5,6.9,87,0.00,,FEW,0.00,WeatherDisplay:10.37,2013-06-16 09:46:00,
2013-06-16 04:51:00,81.7,77.8,29.05,SSE,151,4.3,4.6,88,0.00,,FEW,0.00,WeatherDisplay:10.37,2013-06-16 09:51:00,
2013-06-16 04:56:00,81.6,77.4,29.05,SE,132,5.6,8.1,87,0.00,,FEW,0.00,WeatherDisplay:10.37,2013-06-16 09:56:00,
2013-06-16 05:01:00,81.5,77.6,29.05,SE,134,4.1,6.9,88,0.00,,FEW,0.00,WeatherDisplay:10.37,2013-06-16 10:01:00,
2013-06-16 05:06:00,81.5,77.6,29.05,South,176,5.9,7.4,88,0.00,,FEW,0.00,WeatherDisplay:10.37,2013-06-16 10:06:00,
2013-06-16 05:11:00,81.6,77.4,29.05,ESE,118,7.2,11.5,87,0.00,,FEW,0.00,WeatherDisplay:10.37,2013-06-16 10:11:00,
2013-06-16 05:16:00,81.7,77.8,29.05,SW,222,5.0,8.1,88,0.00,,FEW,0.00,WeatherDisplay:10.37,2013-06-16 10:16:00,
2013-06-16 05:21:00,81.6,77.7,29.05,SSW,207,7.3,7.3,88,0.00,,FEW,0.00,WeatherDisplay:10.37,2013-06-16 10:21:00,
2013-06-16 05:26:00,81.6,77.4,29.05,SSE,166,4.1,10.4,87,0.00,,FEW,0.00,WeatherDisplay:10.37,2013-06-16 10:26:00,
2013-06-16 05:31:00,81.6,77.4,29.05,WSW,237,3.1,4.6,87,0.00,,FEW,0.00,WeatherDisplay:10.37,2013-06-16 10:31:00,
2013-06-16 05:36:00,81.6,77.7,29.05,SSW,197,3.4,9.2,88,0.00,,FEW,0.00,WeatherDisplay:10.37,2013-06-16 10:36:00,
2013-06-16 05:41:00,81.6,77.7,29.05,SSE,147,2.4,8.4,88,0.00,,FEW,0.00,WeatherDisplay:10.37,2013-06-16 10:41:00,
2013-06-16 05:46:00,81.6,77.7,29.06,South,170,8.4,18.4,88,0.00,,FEW,0.00,WeatherDisplay:10.37,2013-06-16 10:46:00,
2013-06-16 05:51:00,81.6,77.7,29.06,South,179,4.1,6.9,88,0.00,,FEW,0.00,WeatherDisplay:10.37,2013-06-16 10:51:00,
2013-06-16 05:56:00,81.6,77.7,29.06,SSE,165,4.1,5.8,88,0.00,,FEW,0.00,WeatherDisplay:10.37,2013-06-16 10:56:00,
2013-06-16 06:01:00,81.6,77.7,29.06,SSE,162,5.4,8.1,88,0.00,,FEW,0.00,WeatherDisplay:10.37,2013-06-16 11:01:00,
2013-06-16 06:06:00,81.6,77.7,29.06,SSE,168,2.5,6.3,88,0.00,,FEW,0.00,WeatherDisplay:10.37,2013-06-16 11:06:00,
2013-06-16 06:11:00,81.6,77.7,29.06,SSW,193,3.7,4.6,88,0.00,,FEW,0.00,WeatherDisplay:10.37,2013-06-16 11:11:00,
2013-06-16 06:16:00,81.6,77.7,29.06,SE,144,3.0,6.9,88,0.00,,FEW,0.00,WeatherDisplay:10.37,2013-06-16 11:16:00,
2013-06-16 06:21:00,81.6,77.7,29.07,SE,138,3.5,5.8,88,0.00,,FEW,0.00,WeatherDisplay:10.37,2013-06-16 11:21:00,
2013-06-16 06:26:00,81.6,77.7,29.07,SE,127,2.0,5.8,88,0.00,,FEW,0.00,WeatherDisplay:10.37,2013-06-16 11:26:00,
2013-06-16 06:31:00,81.6,77.7,29.07,ESE,117,2.6,5.8,88,0.00,,FEW,0.00,WeatherDisplay:10.37,2013-06-16 11:31:00,
2013-06-16 06:36:00,81.6,77.7,29.07,South,177,6.2,7.4,88,0.00,,FEW,0.00,WeatherDisplay:10.37,2013-06-16 11:36:00,
2013-06-16 06:41:00,81.7,77.8,29.07,SE,126,3.5,6.3,88,0.00,,FEW,0.00,WeatherDisplay:10.37,2013-06-16 11:41:00,
2013-06-16 06:46:00,81.7,78.1,29.07,South,185,3.5,4.6,89,0.00,,FEW,0.00,WeatherDisplay:10.37,2013-06-16 11:46:00,
2013-06-16 06:51:00,81.7,77.8,29.08,SSE,152,5.4,9.2,88,0.00,,FEW,0.00,WeatherDisplay:10.37,2013-06-16 11:51:00,
2013-06-16 06:56:00,81.6,77.4,29.08,SSE,152,1.7,5.8,87,0.00,,FEW,0.00,WeatherDisplay:10.37,2013-06-16 11:56:00,
2013-06-16 07:01:00,81.8,77.5,29.08,SE,131,3.5,5.8,87,0.00,,FEW,0.00,WeatherDisplay:10.37,2013-06-16 12:01:00,
2013-06-16 07:06:00,82.0,78.1,29.08,SSE,149,3.3,6.9,88,0.00,,FEW,0.00,WeatherDisplay:10.37,2013-06-16 12:06:00,
2013-06-16 07:11:00,82.0,77.7,29.08,SSE,156,2.9,6.9,87,0.00,,FEW,0.00,WeatherDisplay:10.37,2013-06-16 12:11:00,
2013-06-16 07:16:00,82.1,78.2,29.08,SW,234,3.8,4.6,88,0.00,,FEW,0.00,WeatherDisplay:10.37,2013-06-16 12:16:00,
2013-06-16 07:21:00,82.3,78.0,29.08,SE,130,3.0,6.9,87,0.00,,FEW,0.00,WeatherDisplay:10.37,2013-06-16 12:21:00,
2013-06-16 07:26:00,82.5,78.2,29.09,SE,145,6.6,6.6,87,0.00,,FEW,0.00,WeatherDisplay:10.37,2013-06-16 12:26:00,
2013-06-16 07:31:00,82.7,78.4,29.09,SSE,152,4.2,5.8,87,0.00,,FEW,0.00,WeatherDisplay:10.37,2013-06-16 12:31:00,
2013-06-16 07:36:00,82.7,78.4,29.09,South,171,3.9,7.4,87,0.00,,FEW,0.00,WeatherDisplay:10.37,2013-06-16 12:36:00,
2013-06-16 07:41:00,82.8,78.5,29.09,SSE,163,5.8,9.2,87,0.00,,FEW,0.00,WeatherDisplay:10.37,2013-06-16 12:41:00,
2013-06-16 07:46:00,83.0,78.4,29.09,SSW,213,6.1,10.5,86,0.00,,FEW,0.00,WeatherDisplay:10.37,2013-06-16 12:46:00,
2013-06-16 07:51:00,83.1,78.5,29.09,SSE,152,6.2,11.5,86,0.00,,FEW,0.00,WeatherDisplay:10.37,2013-06-16 12:51:00,
2013-06-16 07:56:00,83.3,78.7,29.09,SE,143,6.6,9.5,86,0.00,,FEW,0.00,WeatherDisplay:10.37,2013-06-16 12:56:00,
2013-06-16 08:01:00,83.5,78.9,29.09,SSE,165,2.2,3.5,86,0.00,,FEW,0.00,WeatherDisplay:10.37,2013-06-16 13:01:00,
2013-06-16 08:06:00,83.7,78.7,29.10,South,185,4.8,9.2,85,0.00,,FEW,0.00,WeatherDisplay:10.37,2013-06-16 13:06:00,
2013-06-16 08:11:00,84.0,79.0,29.10,NW,320,11.2,11.2,85,0.00,,FEW,0.00,WeatherDisplay:10.37,2013-06-16 13:11:00,
2013-06-16 08:16:00,84.2,78.8,29.10,South,173,4.5,6.9,84,0.00,,FEW,0.00,WeatherDisplay:10.37,2013-06-16 13:16:00,
2013-06-16 08:21:00,84.5,79.1,29.10,South,187,5.6,6.9,84,0.00,,FEW,0.00,WeatherDisplay:10.37,2013-06-16 13:21:00,
2013-06-16 08:26:00,84.5,79.1,29.11,South,180,6.1,6.9,84,0.00,,FEW,0.00,WeatherDisplay:10.37,2013-06-16 13:26:00,
2013-06-16 08:31:00,84.5,79.1,29.11,South,178,5.8,6.9,84,0.00,,FEW,0.00,WeatherDisplay:10.37,2013-06-16 13:31:00,
2013-06-16 08:36:00,84.8,79.4,29.11,ESE,119,2.5,8.1,84,0.00,,FEW,0.00,WeatherDisplay:10.37,2013-06-16 13:36:00,
2013-06-16 08:41:00,85.0,79.3,29.11,WSW,248,4.4,9.2,83,0.00,,FEW,0.00,WeatherDisplay:10.37,2013-06-16 13:41:00,
2013-06-16 08:46:00,85.3,79.5,29.11,WSW,241,5.6,10.4,83,0.00,,FEW,0.00,WeatherDisplay:10.37,2013-06-16 13:46:00,
2013-06-16 08:51:00,85.7,79.9,29.11,South,186,5.1,5.8,83,0.00,,FEW,0.00,WeatherDisplay:10.37,2013-06-16 13:51:00,
2013-06-16 08:56:00,85.6,79.5,29.11,SE,137,4.1,8.1,82,0.00,,FEW,0.00,WeatherDisplay:10.37,2013-06-16 13:56:00,
2013-06-16 09:01:00,85.4,78.9,29.12,SSE,149,6.3,10.4,81,0.00,,FEW,0.00,WeatherDisplay:10.37,2013-06-16 14:01:00,
2013-06-16 09:06:00,85.5,79.4,29.12,South,187,11.0,11.5,82,0.00,,FEW,0.00,WeatherDisplay:10.37,2013-06-16 14:06:00,
2013-06-16 09:11:00,85.6,79.5,29.12,SSE,152,8.7,8.7,82,0.00,,FEW,0.00,WeatherDisplay:10.37,2013-06-16 14:11:00,
2013-06-16 09:16:00,85.9,79.4,29.12,East,94,5.6,6.3,81,0.00,,FEW,0.00,WeatherDisplay:10.37,2013-06-16 14:16:00,
2013-06-16 09:21:00,86.0,79.5,29.12,SE,145,5.6,13.8,81,0.00,,FEW,0.00,WeatherDisplay:10.37,2013-06-16 14:21:00,
2013-06-16 09:26:00,86.0,79.1,29.12,SE,135,7.1,10.4,80,0.00,,FEW,0.00,WeatherDisplay:10.37,2013-06-16 14:26:00,
2013-06-16 09:31:00,86.0,79.1,29.12,SSE,168,5.8,6.9,80,0.00,,FEW,0.00,WeatherDisplay:10.37,2013-06-16 14:31:00,
2013-06-16 09:36:00,85.9,79.0,29.13,East,92,6.1,11.5,80,0.00,,FEW,0.00,WeatherDisplay:10.37,2013-06-16 14:36:00,
2013-06-16 09:41:00,85.8,79.3,29.13,SSE,164,8.0,8.1,81,0.00,,FEW,0.00,WeatherDisplay:10.37,2013-06-16 14:41:00,
2013-06-16 09:46:00,86.2,79.3,29.13,SE,135,7.1,7.1,80,0.00,,FEW,0.00,WeatherDisplay:10.37,2013-06-16 14:46:00,
2013-06-16 09:51:00,86.5,79.6,29.13,SSE,151,8.6,9.2,80,0.00,,FEW,0.00,WeatherDisplay:10.37,2013-06-16 14:51:00,
2013-06-16 09:56:00,86.8,79.5,29.13,SSE,149,7.1,11.5,79,0.00,,FEW,0.00,WeatherDisplay:10.37,2013-06-16 14:56:00,
2013-06-16 10:01:00,86.4,79.5,29.13,South,174,2.4,6.9,80,0.00,,FEW,0.00,WeatherDisplay:10.37,2013-06-16 15:01:00,
2013-06-16 10:06:00,86.5,80.0,29.13,SW,218,2.2,6.9,81,0.00,,FEW,0.00,WeatherDisplay:10.37,2013-06-16 15:06:00,
2013-06-16 10:11:00,86.6,80.1,29.12,SE,140,7.0,10.4,81,0.00,,FEW,0.00,WeatherDisplay:10.37,2013-06-16 15:11:00,
2013-06-16 10:16:00,86.8,79.9,29.13,SSE,161,7.3,9.2,80,0.00,,FEW,0.00,WeatherDisplay:10.37,2013-06-16 15:16:00,
2013-06-16 10:21:00,86.9,80.0,29.12,SSW,209,5.9,9.2,80,0.00,,FEW,0.00,WeatherDisplay:10.37,2013-06-16 15:21:00,
2013-06-16 10:26:00,87.0,79.7,29.12,SE,141,9.9,12.7,79,0.00,,FEW,0.00,WeatherDisplay:10.37,2013-06-16 15:26:00,
2013-06-16 10:31:00,87.4,80.5,29.12,SE,135,2.5,9.2,80,0.00,,FEW,0.00,WeatherDisplay:10.37,2013-06-16 15:31:00,
2013-06-16 10:36:00,87.6,79.9,29.12,SSE,152,6.4,10.4,78,0.00,,FEW,0.00,WeatherDisplay:10.37,2013-06-16 15:36:00,
2013-06-16 10:41:00,87.7,80.0,29.12,SSW,196,6.0,8.1,78,0.00,,FEW,0.00,WeatherDisplay:10.37,2013-06-16 15:41:00,
2013-06-16 10:46:00,88.0,79.5,29.12,SSE,151,8.5,11.5,76,0.00,,FEW,0.00,WeatherDisplay:10.37,2013-06-16 15:46:00,
2013-06-16 10:51:00,87.9,79.4,29.12,SE,138,10.0,12.7,76,0.00,,FEW,0.00,WeatherDisplay:10.37,2013-06-16 15:51:00,
2013-06-16 10:56:00,88.2,80.1,29.12,SE,143,4.6,6.3,77,0.00,,FEW,0.00,WeatherDisplay:10.37,2013-06-16 15:56:00,
2013-06-16 11:01:00,88.5,80.0,29.12,SE,143,5.2,11.3,76,0.00,,FEW,0.00,WeatherDisplay:10.37,2013-06-16 16:01:00,
2013-06-16 11:06:00,88.6,80.1,29.13,SSE,158,6.8,8.1,76,0.00,,FEW,0.00,WeatherDisplay:10.37,2013-06-16 16:06:00,
2013-06-16 11:11:00,88.3,79.8,29.13,SSE,161,5.0,10.4,76,0.00,,FEW,0.00,WeatherDisplay:10.37,2013-06-16 16:11:00,
2013-06-16 11:16:00,88.0,79.9,29.13,SSE,161,6.9,11.5,77,0.00,,FEW,0.00,WeatherDisplay:10.37,2013-06-16 16:16:00,
2013-06-16 11:21:00,88.0,80.3,29.13,SSE,158,3.9,10.4,78,0.00,,FEW,0.00,WeatherDisplay:10.37,2013-06-16 16:21:00,
2013-06-16 11:26:00,88.5,80.4,29.13,SE,135,6.3,8.4,77,0.00,,FEW,0.00,WeatherDisplay:10.37,2013-06-16 16:26:00,
2013-06-16 11:31:00,88.2,80.1,29.13,SSE,163,9.4,11.5,77,0.00,,FEW,0.00,WeatherDisplay:10.37,2013-06-16 16:31:00,
2013-06-16 11:36:00,88.1,80.4,29.13,SE,132,6.1,10.4,78,0.00,,FEW,0.00,WeatherDisplay:10.37,2013-06-16 16:36:00,
2013-06-16 11:41:00,88.6,80.9,29.13,SSE,163,3.8,10.4,78,0.00,,FEW,0.00,WeatherDisplay:10.37,2013-06-16 16:41:00,
2013-06-16 11:46:00,88.7,80.6,29.12,SE,140,8.2,12.7,77,0.00,,FEW,0.00,WeatherDisplay:10.37,2013-06-16 16:46:00,
2013-06-16 11:51:00,88.7,80.6,29.12,SSE,147,2.8,8.1,77,0.00,,FEW,0.00,WeatherDisplay:10.37,2013-06-16 16:51:00,
2013-06-16 11:56:00,88.7,80.6,29.12,SE,142,4.3,6.9,77,0.00,,FEW,0.00,WeatherDisplay:10.37,2013-06-16 16:56:00,
2013-06-16 12:01:00,88.4,79.9,29.12,SSW,196,7.3,12.7,76,0.00,,FEW,0.00,WeatherDisplay:10.37,2013-06-16 17:01:00,
2013-06-16 12:06:00,88.8,80.3,29.12,SE,128,6.4,10.5,76,0.00,,FEW,0.00,WeatherDisplay:10.37,2013-06-16 17:06:00,
2013-06-16 12:11:00,88.6,80.1,29.12,SE,144,7.9,9.2,76,0.00,,FEW,0.00,WeatherDisplay:10.37,2013-06-16 17:11:00,
2013-06-16 12:16:00,88.8,80.7,29.13,SSE,151,7.9,11.5,77,0.00,,FEW,0.00,WeatherDisplay:10.37,2013-06-16 17:16:00,
2013-06-16 12:21:00,88.8,80.7,29.13,SSE,168,5.4,10.4,77,0.00,,FEW,0.00,WeatherDisplay:10.37,2013-06-16 17:21:00,
2013-06-16 12:26:00,88.8,80.7,29.12,South,186,7.5,9.5,77,0.00,,FEW,0.00,WeatherDisplay:10.37,2013-06-16 17:26:00,
2013-06-16 12:31:00,88.8,80.7,29.12,SSE,158,9.7,12.7,77,0.00,,FEW,0.00,WeatherDisplay:10.37,2013-06-16 17:31:00,
2013-06-16 12:36:00,88.5,80.4,29.13,SSE,148,10.3,11.5,77,0.00,,FEW,0.00,WeatherDisplay:10.37,2013-06-16 17:36:00,
2013-06-16 12:41:00,88.6,80.5,29.12,East,88,7.1,10.4,77,0.00,,FEW,0.00,WeatherDisplay:10.37,2013-06-16 17:41:00,
2013-06-16 12:46:00,88.4,80.3,29.13,SSE,152,10.4,17.3,77,0.00,,FEW,0.00,WeatherDisplay:10.37,2013-06-16 17:46:00,
2013-06-16 12:51:00,88.3,80.2,29.12,ESE,115,10.7,13.8,77,0.00,,FEW,0.00,WeatherDisplay:10.37,2013-06-16 17:51:00,
2013-06-16 12:56:00,89.1,81.3,29.12,SSW,205,5.6,8.1,78,0.00,,FEW,0.00,WeatherDisplay:10.37,2013-06-16 17:56:00,
2013-06-16 13:01:00,89.4,80.8,29.12,SE,128,5.2,9.5,76,0.00,,FEW,0.00,WeatherDisplay:10.37,2013-06-16 18:01:00,
2013-06-16 13:06:00,89.0,80.4,29.12,ESE,115,9.6,15.0,76,0.00,,FEW,0.00,WeatherDisplay:10.37,2013-06-16 18:06:00,
2013-06-16 13:11:00,89.0,80.4,29.12,SW,228,9.5,12.7,76,0.00,,FEW,0.00,WeatherDisplay:10.37,2013-06-16 18:11:00,
2013-06-16 13:16:00,88.8,80.3,29.12,SSE,156,11.9,12.7,76,0.00,,FEW,0.00,WeatherDisplay:10.37,2013-06-16 18:16:00,
2013-06-16 13:21:00,88.8,80.3,29.12,SE,140,5.8,13.8,76,0.00,,FEW,0.00,WeatherDisplay:10.37,2013-06-16 18:21:00,
2013-06-16 13:26:00,88.7,80.6,29.12,East,83,9.0,13.8,77,0.00,,FEW,0.00,WeatherDisplay:10.37,2013-06-16 18:26:00,
2013-06-16 13:31:00,88.6,80.5,29.12,South,187,5.1,12.7,77,0.00,,FEW,0.00,WeatherDisplay:10.37,2013-06-16 18:31:00,
2013-06-16 13:36:00,88.9,80.7,29.11,SSW,194,8.9,10.4,77,0.00,,FEW,0.00,WeatherDisplay:10.37,2013-06-16 18:36:00,
2013-06-16 13:41:00,89.1,80.5,29.11,SSE,161,8.0,12.7,76,0.00,,FEW,0.00,WeatherDisplay:10.37,2013-06-16 18:41:00,
2013-06-16 13:46:00,89.0,80.4,29.11,SE,128,8.3,13.8,76,0.00,,FEW,0.00,WeatherDisplay:10.37,2013-06-16 18:46:00,
2013-06-16 13:51:00,88.9,80.3,29.11,SSE,156,9.4,13.8,76,0.00,,FEW,0.00,WeatherDisplay:10.37,2013-06-16 18:51:00,
2013-06-16 13:56:00,88.9,80.3,29.11,ESE,102,8.8,18.4,76,0.00,,FEW,0.00,WeatherDisplay:10.37,2013-06-16 18:56:00,
2013-06-16 14:01:00,89.3,80.7,29.11,SE,128,8.4,9.2,76,0.00,,FEW,0.00,WeatherDisplay:10.37,2013-06-16 19:01:00,
2013-06-16 14:06:00,89.2,80.2,29.10,SE,143,11.4,12.7,75,0.00,,FEW,0.00,WeatherDisplay:10.37,2013-06-16 19:06:00,
2013-06-16 14:11:00,89.1,80.5,29.10,SSE,150,10.3,15.0,76,0.00,,FEW,0.00,WeatherDisplay:10.37,2013-06-16 19:11:00,
2013-06-16 14:16:00,89.4,80.8,29.10,SSE,152,5.8,5.8,76,0.00,,FEW,0.00,WeatherDisplay:10.37,2013-06-16 19:16:00,
2013-06-16 14:21:00,89.6,81.0,29.10,SSE,154,5.3,9.2,76,0.00,,FEW,0.00,WeatherDisplay:10.37,2013-06-16 19:21:00,
2013-06-16 14:26:00,89.3,80.3,29.10,ESE,109,8.0,12.7,75,0.00,,FEW,0.00,WeatherDisplay:10.37,2013-06-16 19:26:00,
2013-06-16 14:31:00,88.9,80.7,29.09,South,185,7.0,12.7,77,0.00,,FEW,0.00,WeatherDisplay:10.37,2013-06-16 19:31:00,
2013-06-16 14:36:00,88.3,80.2,29.09,ESE,103,6.6,11.5,77,0.00,,FEW,0.00,WeatherDisplay:10.37,2013-06-16 19:36:00,
2013-06-16 14:41:00,88.0,80.3,29.09,SE,137,6.4,11.5,78,0.00,,FEW,0.00,WeatherDisplay:10.37,2013-06-16 19:41:00,
2013-06-16 14:46:00,87.5,80.2,29.09,WSW,242,6.3,8.1,79,0.00,,FEW,0.00,WeatherDisplay:10.37,2013-06-16 19:46:00,
2013-06-16 14:51:00,87.4,80.5,29.09,ESE,121,5.5,12.7,80,0.00,,FEW,0.00,WeatherDisplay:10.37,2013-06-16 19:51:00,
2013-06-16 14:56:00,87.6,80.3,29.09,ESE,105,6.7,11.5,79,0.00,,FEW,0.00,WeatherDisplay:10.37,2013-06-16 19:56:00,
2013-06-16 15:01:00,87.8,79.7,29.08,SSE,156,8.5,16.1,77,0.00,,FEW,0.00,WeatherDisplay:10.37,2013-06-16 20:01:00,
2013-06-16 15:06:00,87.9,80.6,29.08,ESE,115,7.6,15.0,79,0.00,,FEW,0.00,WeatherDisplay:10.37,2013-06-16 20:06:00,
2013-06-16 15:11:00,88.2,80.9,29.09,ESE,122,8.1,9.2,79,0.00,,FEW,0.00,WeatherDisplay:10.37,2013-06-16 20:11:00,
2013-06-16 15:16:00,88.4,81.1,29.08,ENE,78,6.5,15.0,79,0.00,,FEW,0.00,WeatherDisplay:10.37,2013-06-16 20:16:00,
2013-06-16 15:21:00,89.1,80.9,29.08,SE,128,4.7,7.4,77,0.00,,FEW,0.00,WeatherDisplay:10.37,2013-06-16 20:21:00,
2013-06-16 15:26:00,88.8,80.7,29.08,SSE,154,6.4,13.8,77,0.00,,FEW,0.00,WeatherDisplay:10.37,2013-06-16 20:26:00,
2013-06-16 15:31:00,89.3,81.1,29.08,SW,229,5.6,11.5,77,0.00,,FEW,0.00,WeatherDisplay:10.37,2013-06-16 20:31:00,
2013-06-16 15:36:00,89.4,80.8,29.08,SE,142,8.3,8.3,76,0.00,,FEW,0.00,WeatherDisplay:10.37,2013-06-16 20:36:00,
2013-06-16 15:41:00,88.9,80.3,29.08,SE,145,10.5,11.5,76,0.00,,FEW,0.00,WeatherDisplay:10.37,2013-06-16 20:41:00,
2013-06-16 15:46:00,88.8,80.3,29.08,SE,128,11.9,17.3,76,0.00,,FEW,0.00,WeatherDisplay:10.37,2013-06-16 20:46:00,
2013-06-16 15:51:00,88.5,80.4,29.08,ESE,119,9.7,16.1,77,0.00,,FEW,0.00,WeatherDisplay:10.37,2013-06-16 20:51:00,
2013-06-16 15:56:00,88.5,80.4,29.08,East,90,6.3,7.4,77,0.00,,FEW,0.00,WeatherDisplay:10.37,2013-06-16 20:56:00,
2013-06-16 16:01:00,88.5,79.6,29.08,SE,125,7.3,12.7,75,0.00,,FEW,0.00,WeatherDisplay:10.37,2013-06-16 21:01:00,
2013-06-16 16:06:00,88.2,80.1,29.08,SSE,156,7.1,12.7,77,0.00,,FEW,0.00,WeatherDisplay:10.37,2013-06-16 21:06:00,
2013-06-16 16:11:00,88.3,79.4,29.07,SSE,155,8.4,15.0,75,0.00,,FEW,0.00,WeatherDisplay:10.37,2013-06-16 21:11:00,
2013-06-16 16:16:00,88.2,79.7,29.07,SSE,154,7.5,11.5,76,0.00,,FEW,0.00,WeatherDisplay:10.37,2013-06-16 21:16:00,
2013-06-16 16:21:00,88.2,78.9,29.07,ESE,114,11.1,16.1,74,0.00,,FEW,0.00,WeatherDisplay:10.37,2013-06-16 21:21:00,
2013-06-16 16:26:00,88.1,79.6,29.08,ESE,103,9.2,15.0,76,0.00,,FEW,0.00,WeatherDisplay:10.37,2013-06-16 21:26:00,
2013-06-16 16:31:00,88.3,79.8,29.08,SSE,147,4.5,12.7,76,0.00,,FEW,0.00,WeatherDisplay:10.37,2013-06-16 21:31:00,
2013-06-16 16:36:00,88.2,78.4,29.08,East,99,7.9,11.5,73,0.00,,FEW,0.00,WeatherDisplay:10.37,2013-06-16 21:36:00,
2013-06-16 16:41:00,88.3,79.4,29.08,SSE,147,5.8,10.4,75,0.00,,FEW,0.00,WeatherDisplay:10.37,2013-06-16 21:41:00,
2013-06-16 16:46:00,88.2,80.1,29.08,SSE,156,6.6,15.0,77,0.00,,FEW,0.00,WeatherDisplay:10.37,2013-06-16 21:46:00,
2013-06-16 16:51:00,88.0,79.5,29.07,SE,125,5.6,13.8,76,0.00,,FEW,0.00,WeatherDisplay:10.37,2013-06-16 21:51:00,
2013-06-16 16:56:00,87.8,78.5,29.07,ESE,112,10.6,12.6,74,0.00,,FEW,0.00,WeatherDisplay:10.37,2013-06-16 21:56:00,
2013-06-16 17:01:00,87.7,78.8,29.07,SE,141,6.8,9.2,75,0.00,,FEW,0.00,WeatherDisplay:10.37,2013-06-16 22:01:00,
2013-06-16 17:06:00,87.9,79.0,29.07,SE,138,8.9,13.8,75,0.00,,FEW,0.00,WeatherDisplay:10.37,2013-06-16 22:06:00,
2013-06-16 17:11:00,87.4,79.3,29.07,SE,143,7.4,12.7,77,0.00,,FEW,0.00,WeatherDisplay:10.37,2013-06-16 22:11:00,
2013-06-16 17:16:00,87.2,79.1,29.07,SE,132,10.4,13.8,77,0.00,,FEW,0.00,WeatherDisplay:10.37,2013-06-16 22:16:00,
2013-06-16 17:21:00,86.9,79.2,29.06,ESE,115,7.0,13.8,78,0.00,,FEW,0.00,WeatherDisplay:10.37,2013-06-16 22:21:00,
2013-06-16 17:26:00,86.4,79.1,29.06,SE,141,7.7,12.7,79,0.00,,FEW,0.00,WeatherDisplay:10.37,2013-06-16 22:26:00,
2013-06-16 17:31:00,86.3,79.4,29.06,SE,140,7.6,15.0,80,0.00,,FEW,0.00,WeatherDisplay:10.37,2013-06-16 22:31:00,
2013-06-16 17:36:00,86.0,78.7,29.07,SSE,147,9.6,13.7,79,0.00,,FEW,0.00,WeatherDisplay:10.37,2013-06-16 22:36:00,
2013-06-16 17:41:00,85.7,78.8,29.07,SE,142,8.2,12.7,80,0.00,,FEW,0.00,WeatherDisplay:10.37,2013-06-16 22:41:00,
2013-06-16 17:46:00,85.5,79.0,29.07,South,178,8.3,12.7,81,0.00,,FEW,0.00,WeatherDisplay:10.37,2013-06-16 22:46:00,
2013-06-16 17:51:00,85.4,78.9,29.07,SSE,156,8.5,11.5,81,0.00,,FEW,0.00,WeatherDisplay:10.37,2013-06-16 22:51:00,
2013-06-16 17:56:00,85.2,79.1,29.07,SSE,152,8.9,11.5,82,0.00,,FEW,0.00,WeatherDisplay:10.37,2013-06-16 22:56:00,
2013-06-16 18:01:00,85.2,79.4,29.07,SE,133,8.3,10.4,83,0.00,,FEW,0.00,WeatherDisplay:10.37,2013-06-16 23:01:00,
2013-06-16 18:06:00,85.1,79.4,29.06,SSE,147,6.2,8.1,83,0.00,,FEW,0.00,WeatherDisplay:10.37,2013-06-16 23:06:00,
2013-06-16 18:11:00,85.1,79.4,29.06,SE,130,8.9,15.7,83,0.00,,FEW,0.00,WeatherDisplay:10.37,2013-06-16 23:11:00,
2013-06-16 18:16:00,84.9,79.2,29.06,South,183,3.9,11.5,83,0.00,,FEW,0.00,WeatherDisplay:10.37,2013-06-16 23:16:00,
2013-06-16 18:21:00,84.9,78.0,29.06,South,173,8.0,16.1,80,0.00,,FEW,0.00,WeatherDisplay:10.37,2013-06-16 23:21:00,
2013-06-16 18:26:00,84.9,78.0,29.06,East,97,7.0,8.1,80,0.00,,FEW,0.00,WeatherDisplay:10.37,2013-06-16 23:26:00,
2013-06-16 18:31:00,84.9,78.0,29.06,SE,132,11.6,12.7,80,0.00,,FEW,0.00,WeatherDisplay:10.37,2013-06-16 23:31:00,
2013-06-16 18:36:00,84.7,78.2,29.06,SSE,156,11.4,15.0,81,0.00,,FEW,0.00,WeatherDisplay:10.37,2013-06-16 23:36:00,
2013-06-16 18:41:00,84.6,78.5,29.05,SE,126,10.2,12.7,82,0.00,,FEW,0.00,WeatherDisplay:10.37,2013-06-16 23:41:00,
2013-06-16 18:46:00,84.5,78.8,29.05,ESE,105,10.1,13.7,83,0.00,,FEW,0.00,WeatherDisplay:10.37,2013-06-16 23:46:00,
2013-06-16 18:51:00,84.5,78.0,29.06,WSW,242,4.0,9.2,81,0.00,,FEW,0.00,WeatherDisplay:10.37,2013-06-16 23:51:00,
2013-06-16 18:56:00,84.5,77.6,29.05,ESE,116,6.4,17.3,80,0.00,,FEW,0.00,WeatherDisplay:10.37,2013-06-16 23:56:00,
2013-06-16 19:01:00,84.6,78.5,29.05,ESE,112,11.9,13.8,82,0.00,,FEW,0.00,WeatherDisplay:10.37,2013-06-17 00:01:00,
2013-06-16 19:06:00,84.5,78.4,29.05,SE,139,7.5,12.7,82,0.00,,FEW,0.00,WeatherDisplay:10.37,2013-06-17 00:06:00,
2013-06-16 19:11:00,84.4,78.7,29.06,SE,140,7.3,15.0,83,0.00,,FEW,0.00,WeatherDisplay:10.37,2013-06-17 00:11:00,
2013-06-16 19:16:00,84.4,79.0,29.06,SE,125,7.5,15.0,84,0.00,,FEW,0.00,WeatherDisplay:10.37,2013-06-17 00:16:00,
2013-06-16 19:21:00,84.3,79.3,29.06,SE,144,7.2,13.8,85,0.00,,FEW,0.00,WeatherDisplay:10.37,2013-06-17 00:21:00,
2013-06-16 19:26:00,84.1,79.1,29.06,ESE,116,8.3,10.5,85,0.00,,FEW,0.00,WeatherDisplay:10.37,2013-06-17 00:26:00,
2013-06-16 19:31:00,84.0,79.0,29.06,SE,137,7.4,11.5,85,0.00,,FEW,0.00,WeatherDisplay:10.37,2013-06-17 00:31:00,
2013-06-16 19:36:00,83.9,78.2,29.06,SSE,154,10.2,15.0,83,0.00,,FEW,0.00,WeatherDisplay:10.37,2013-06-17 00:36:00,
2013-06-16 19:41:00,83.9,78.5,29.06,SSE,162,11.3,11.5,84,0.00,,FEW,0.00,WeatherDisplay:10.37,2013-06-17 00:41:00,
2013-06-16 19:46:00,83.9,78.9,29.06,South,176,12.2,13.8,85,0.00,,FEW,0.00,WeatherDisplay:10.37,2013-06-17 00:46:00,
2013-06-16 19:51:00,84.0,79.0,29.06,SE,135,4.9,8.1,85,0.00,,FEW,0.00,WeatherDisplay:10.37,2013-06-17 00:51:00,
2013-06-16 19:56:00,83.9,78.5,29.06,SSE,158,7.1,10.4,84,0.00,,FEW,0.00,WeatherDisplay:10.37,2013-06-17 00:56:00,
2013-06-16 20:01:00,83.8,78.4,29.06,SSE,149,6.3,10.4,84,0.00,,FEW,0.00,WeatherDisplay:10.37,2013-06-17 01:01:00,
2013-06-16 20:06:00,83.7,78.3,29.06,South,189,8.7,17.3,84,0.00,,FEW,0.00,WeatherDisplay:10.37,2013-06-17 01:06:00,
2013-06-16 20:12:00,83.7,78.3,29.06,SSE,154,8.7,9.2,84,0.00,,FEW,0.00,WeatherDisplay:10.37,2013-06-17 01:12:00,
2013-06-16 20:17:00,83.7,78.3,29.06,SW,225,5.2,5.8,84,0.00,,FEW,0.00,WeatherDisplay:10.37,2013-06-17 01:17:00,
2013-06-16 20:22:00,83.6,78.6,29.06,East,80,5.9,8.4,85,0.00,,FEW,0.00,WeatherDisplay:10.37,2013-06-17 01:22:00,
2013-06-16 20:27:00,83.5,78.5,29.06,SSE,164,4.3,9.2,85,0.00,,FEW,0.00,WeatherDisplay:10.37,2013-06-17 01:27:00,
2013-06-16 20:32:00,83.4,78.8,29.06,SSW,193,11.8,15.0,86,0.00,,FEW,0.00,WeatherDisplay:10.37,2013-06-17 01:32:00,
2013-06-16 20:37:00,83.3,78.3,29.05,SSE,163,11.6,12.7,85,0.00,,FEW,0.00,WeatherDisplay:10.37,2013-06-17 01:37:00,
2013-06-16 20:42:00,83.2,78.2,29.06,SE,138,9.4,12.7,85,0.00,,FEW,0.00,WeatherDisplay:10.37,2013-06-17 01:42:00,
2013-06-16 20:47:00,83.1,78.1,29.05,ENE,75,16.0,17.3,85,0.00,,FEW,0.00,WeatherDisplay:10.37,2013-06-17 01:47:00,
2013-06-16 20:52:00,83.1,78.1,29.06,SSE,156,7.2,24.2,85,0.00,,FEW,0.00,WeatherDisplay:10.37,2013-06-17 01:52:00,
2013-06-16 20:57:00,83.1,78.5,29.05,South,173,9.6,13.8,86,0.00,,FEW,0.00,WeatherDisplay:10.37,2013-06-17 01:57:00,
2013-06-16 21:02:00,83.0,78.0,29.06,SE,132,10.0,16.1,85,0.00,,FEW,0.00,WeatherDisplay:10.37,2013-06-17 02:02:00,
2013-06-16 21:07:00,83.0,78.4,29.06,SE,128,8.0,17.3,86,0.00,,FEW,0.00,WeatherDisplay:10.37,2013-06-17 02:07:00,
2013-06-16 21:12:00,83.0,78.4,29.06,ESE,116,8.6,13.8,86,0.00,,FEW,0.00,WeatherDisplay:10.37,2013-06-17 02:12:00,
2013-06-16 21:17:00,82.9,78.3,29.05,SE,145,7.9,11.5,86,0.00,,FEW,0.00,WeatherDisplay:10.37,2013-06-17 02:17:00,
2013-06-16 21:22:00,82.9,78.3,29.06,SW,224,7.9,10.4,86,0.00,,FEW,0.00,WeatherDisplay:10.37,2013-06-17 02:22:00,
2013-06-16 21:27:00,82.9,78.3,29.06,South,172,11.7,13.8,86,0.00,,FEW,0.00,WeatherDisplay:10.37,2013-06-17 02:27:00,
2013-06-16 21:32:00,82.8,78.2,29.06,East,99,5.0,8.1,86,0.00,,FEW,0.00,WeatherDisplay:10.37,2013-06-17 02:32:00,
2013-06-16 21:37:00,82.8,78.2,29.06,ESE,103,9.0,15.0,86,0.00,,FEW,0.00,WeatherDisplay:10.37,2013-06-17 02:37:00,
2013-06-16 21:42:00,82.8,78.2,29.06,SE,141,6.0,10.4,86,0.00,,FEW,0.00,WeatherDisplay:10.37,2013-06-17 02:42:00,
2013-06-16 21:47:00,82.8,78.5,29.06,South,174,7.0,11.5,87,0.00,,FEW,0.00,WeatherDisplay:10.37,2013-06-17 02:47:00,
2013-06-16 21:52:00,82.8,78.5,29.07,SE,135,10.9,15.0,87,0.00,,FEW,0.00,WeatherDisplay:10.37,2013-06-17 02:52:00,
2013-06-16 21:57:00,82.8,78.5,29.07,ESE,109,9.1,23.0,87,0.00,,FEW,0.00,WeatherDisplay:10.37,2013-06-17 02:57:00,
2013-06-16 22:02:00,82.8,78.5,29.07,South,185,10.2,12.7,87,0.00,,FEW,0.00,WeatherDisplay:10.37,2013-06-17 03:02:00,
2013-06-16 22:07:00,82.8,78.2,29.07,ESE,123,8.5,13.8,86,0.00,,FEW,0.00,WeatherDisplay:10.37,2013-06-17 03:07:00,
2013-06-16 22:12:00,82.9,78.6,29.08,SE,144,7.9,16.1,87,0.00,,FEW,0.00,WeatherDisplay:10.37,2013-06-17 03:12:00,
2013-06-16 22:17:00,82.7,78.4,29.07,ESE,115,9.4,10.4,87,0.00,,FEW,0.00,WeatherDisplay:10.37,2013-06-17 03:17:00,
2013-06-16 22:22:00,82.7,78.1,29.08,ESE,117,8.1,9.2,86,0.00,,FEW,0.00,WeatherDisplay:10.37,2013-06-17 03:22:00,
2013-06-16 22:27:00,82.7,78.4,29.08,ESE,120,8.5,15.0,87,0.00,,FEW,0.00,WeatherDisplay:10.37,2013-06-17 03:27:00,
2013-06-16 22:32:00,82.6,78.0,29.08,SSE,166,7.9,12.7,86,0.00,,FEW,0.00,WeatherDisplay:10.37,2013-06-17 03:32:00,
2013-06-16 22:37:00,82.6,78.0,29.08,ESE,119,8.3,13.8,86,0.00,,FEW,0.00,WeatherDisplay:10.37,2013-06-17 03:37:00,
2013-06-16 22:42:00,82.7,78.1,29.08,ESE,118,9.1,15.0,86,0.00,,FEW,0.00,WeatherDisplay:10.37,2013-06-17 03:42:00,
2013-06-16 22:47:00,82.7,78.1,29.08,ESE,123,9.2,11.5,86,0.00,,FEW,0.00,WeatherDisplay:10.37,2013-06-17 03:47:00,
2013-06-16 22:52:00,82.6,78.0,29.08,SE,132,9.2,17.3,86,0.00,,FEW,0.00,WeatherDisplay:10.37,2013-06-17 03:52:00,
2013-06-16 22:57:00,82.6,78.0,29.08,SSE,152,5.0,13.8,86,0.00,,FEW,0.00,WeatherDisplay:10.37,2013-06-17 03:57:00,
2013-06-16 23:01:00,82.6,78.0,29.08,SSE,161,8.1,15.0,86,0.00,,FEW,0.00,WeatherDisplay:10.37,2013-06-17 04:01:00,
2013-06-16 23:06:00,82.6,78.0,29.08,SSE,162,3.8,6.9,86,0.00,,FEW,0.00,WeatherDisplay:10.37,2013-06-17 04:06:00,
2013-06-16 23:11:00,82.5,77.9,29.08,South,171,7.9,12.7,86,0.00,,FEW,0.00,WeatherDisplay:10.37,2013-06-17 04:11:00,
2013-06-16 23:16:00,82.4,77.8,29.08,SSE,149,9.8,11.5,86,0.00,,FEW,0.00,WeatherDisplay:10.37,2013-06-17 04:16:00,
2013-06-16 23:21:00,82.4,77.8,29.08,SSE,147,10.4,12.7,86,0.00,,FEW,0.00,WeatherDisplay:10.37,2013-06-17 04:21:00,
2013-06-16 23:26:00,82.4,78.1,29.08,ESE,118,6.3,9.2,87,0.00,,FEW,0.00,WeatherDisplay:10.37,2013-06-17 04:26:00,
2013-06-16 23:31:00,82.4,78.1,29.09,SSE,152,7.8,11.5,87,0.00,,FEW,0.00,WeatherDisplay:10.37,2013-06-17 04:31:00,
2013-06-16 23:36:00,82.3,77.7,29.09,WSW,239,10.6,12.7,86,0.00,,FEW,0.00,WeatherDisplay:10.37,2013-06-17 04:36:00,
2013-06-16 23:41:00,82.3,77.7,29.09,ESE,116,6.8,11.5,86,0.00,,FEW,0.00,WeatherDisplay:10.37,2013-06-17 04:41:00,
2013-06-16 23:46:00,82.3,78.0,29.09,SSE,149,6.0,8.4,87,0.00,,FEW,0.00,WeatherDisplay:10.37,2013-06-17 04:46:00,
2013-06-16 23:51:00,82.3,78.0,29.09,South,178,9.1,12.7,87,0.00,,FEW,0.00,WeatherDisplay:10.37,2013-06-17 04:51:00,
2013-06-16 23:56:00,82.2,77.9,29.09,SE,143,5.7,10.4,87,0.00,,FEW,0.00,WeatherDisplay:10.37,2013-06-17 04:56:00,